[[{"header":{"parameterUnit":"m.s-1","parameterCategory":1,"la1":30.2992,"la2":30.254,"lo1":-89.0895,"lo2":-89.0443,"dy":0.0025,"dx":0.0025,"nx":19,"ny":19,"refTime":"2026-05-15T09:00:00:Z","depth":0,"parameterNumber":2,"parameterNumberName":"U-component_of_WINDS"},"data":[0,0,0,-1.5268,-1.527,-1.5361,-1.5361,-1.5476,-1.5477,0,0,0,0,0,0,0,0,0,0,0,-1.5239,-1.524,-1.5268,-1.527,-1.5361,-1.5361,-1.5476,-1.5477,0,0,0,0,0,0,0,0,0,0,0,-1.5239,-1.524,-1.5241,-1.527,-1.5361,-1.5361,-1.5476,-1.5408,0,0,0,0,0,0,0,0,0,0,-1.532,-1.5292,-1.524,-1.5241,-1.5271,-1.5361,-1.5361,-1.5405,-1.5412,-1.5434,0,-1.5452,0,-1.5467,-1.5485,-1.5485,0,0,0,-1.5272,-1.5285,-1.5311,-1.5241,-1.5272,-1.5361,-1.532,-1.5409,-1.5417,-1.5444,-1.5454,-1.5458,-1.5468,-1.5485,-1.5486,-1.5606,-1.5606,0,0,-1.5267,-1.5255,-1.5305,-1.5317,-1.5301,-1.5317,-1.5323,-1.5414,-1.5425,-1.5455,-1.5461,-1.547,-1.5486,-1.5487,-1.5606,-1.5606,0,0,0,-1.5251,-1.5251,-1.5275,-1.5312,-1.5328,-1.532,-1.5327,-1.5421,-1.5429,-1.5462,-1.5472,-1.5487,-1.5488,-1.5605,-1.5606,-1.5618,0,0,0,-1.5248,-1.5242,-1.5273,-1.5267,-1.5326,-1.5375,-1.5331,-1.5423,-1.5434,-1.5471,-1.5487,-1.5489,-1.5604,-1.5605,-1.5617,-1.5626,0,0,0,-1.5234,-1.5241,-1.5253,-1.5266,-1.5305,-1.5374,-1.5388,-1.5425,-1.5439,-1.5485,-1.549,-1.5604,-1.5605,-1.5615,-1.5624,-1.5655,0,0,0,-1.5216,-1.5264,-1.5253,-1.531,-1.5304,-1.5381,-1.5388,-1.5446,-1.5487,-1.5487,-1.5605,-1.5606,-1.5615,-1.5623,-1.5653,-1.5678,-1.5687,0,0,-1.527,-1.527,-1.5304,-1.5297,-1.5373,-1.5368,-1.5446,-1.5495,-1.5511,-1.5574,-1.5577,-1.5617,-1.5624,-1.5654,-1.5743,-1.575,0,0,0,-1.5317,-1.5342,-1.5364,-1.5402,-1.544,-1.5474,-1.5512,-1.553,-1.5584,-1.554,-1.5637,-1.5641,-1.5659,-1.5672,-1.5678,-1.5694,-1.5611,-1.5611,-1.5611,-1.5377,-1.5393,-1.5452,-1.5479,-1.5516,-1.5555,-1.5586,-1.5618,-1.5624,-1.5647,-1.5665,-1.5717,-1.5731,-1.5736,-1.5753,-1.568,-1.568,-1.568,-1.568,-1.5457,-1.5495,-1.5502,-1.5561,-1.5578,-1.5628,-1.5668,-1.567,-1.572,-1.5704,-1.5721,-1.5702,-1.5743,-1.5759,-1.5681,-1.5681,-1.5681,-1.5681,-1.5681,-1.5499,-1.5519,-1.554,-1.5597,-1.5639,-1.5665,-1.5713,-1.5727,-1.5741,-1.5758,-1.5779,-1.5779,-1.5781,-1.5767,-1.5767,-1.5767,-1.5768,-1.5768,-1.5768,-1.5533,-1.5556,-1.5593,-1.5638,-1.5664,-1.5701,-1.574,-1.5767,-1.58,-1.5807,-1.5807,-1.5812,-1.5744,-1.5726,-1.5771,-1.577,-1.577,-1.577,-1.5769,-1.5609,-1.5594,-1.5652,-1.5678,-1.5731,-1.5772,-1.579,-1.5843,-1.5867,-1.589,-1.5891,-1.5838,-1.584,-1.5835,-1.5821,-1.5887,-1.5887,-1.5887,-1.5887,-1.5644,-1.5645,-1.5708,-1.5749,-1.5791,-1.5813,-1.5879,-1.591,-1.594,-1.5956,-1.5949,-1.5931,-1.5925,-1.593,-1.5923,-1.591,-1.5998,-1.5998,-1.5998,-1.5691,-1.5698,-1.5751,-1.5779,-1.5821,-1.5858,-1.592,-1.5968,-1.5999,-1.6003,-1.5969,-1.5964,-1.5936,-1.5926,-1.5929,-1.5918,-1.5894,0,0]},{"header":{"parameterUnit":"m.s-1","parameterCategory":1,"la1":30.2992,"la2":30.254,"lo1":-89.0895,"lo2":-89.0443,"dy":0.0025,"dx":0.0025,"nx":19,"ny":19,"refTime":"2026-05-15T09:00:00:Z","depth":0,"parameterNumber":3,"parameterNumberName":"V-component_of_WINDS"},"data":[0,0,0,2.8292,2.8293,2.8337,2.8337,2.8409,2.841,0,0,0,0,0,0,0,0,0,0,0,2.829,2.8291,2.8292,2.8293,2.8337,2.8337,2.8409,2.841,0,0,0,0,0,0,0,0,0,0,0,2.829,2.8291,2.8292,2.8293,2.8337,2.8337,2.8408,2.8369,0,0,0,0,0,0,0,0,0,0,2.8324,2.8334,2.829,2.8292,2.8294,2.8337,2.8337,2.8367,2.8372,2.8396,0,2.8422,0,2.8417,2.8416,2.8416,0,0,0,2.8285,2.833,2.8332,2.8292,2.8294,2.8337,2.8315,2.837,2.8375,2.8402,2.8423,2.8425,2.8418,2.8416,2.8417,2.8585,2.8586,0,0,2.8282,2.8304,2.8328,2.8336,2.8331,2.8313,2.8316,2.8373,2.8396,2.8423,2.8426,2.8419,2.8417,2.8417,2.8584,2.8586,0,0,0,2.8281,2.8303,2.8302,2.8333,2.834,2.8315,2.8318,2.8393,2.8391,2.8427,2.842,2.8417,2.8418,2.8583,2.8585,2.8662,0,0,0,2.8279,2.8302,2.8302,2.8315,2.8339,2.8368,2.8338,2.8388,2.8393,2.842,2.8417,2.8419,2.8582,2.8584,2.8657,2.8695,0,0,0,2.8283,2.8302,2.8312,2.8317,2.8336,2.8366,2.8367,2.8388,2.839,2.8416,2.8419,2.8581,2.8583,2.8653,2.8688,2.8744,0,0,0,2.8294,2.8383,2.8314,2.841,2.8336,2.8415,2.8367,2.8424,2.8456,2.8418,2.8582,2.8584,2.8652,2.8684,2.874,2.8794,2.8819,0,0,2.8418,2.8398,2.8453,2.8393,2.8489,2.8406,2.8513,2.8523,2.8506,2.8559,2.8563,2.8659,2.8688,2.8743,2.8956,2.8976,0,0,0,2.8499,2.8538,2.8559,2.859,2.8599,2.8609,2.8599,2.8602,2.8646,2.8538,2.8695,2.8711,2.8743,2.8768,2.8785,2.8809,2.8598,2.8597,2.8597,2.8705,2.8677,2.8764,2.8741,2.8772,2.876,2.8782,2.8783,2.8748,2.8785,2.8801,2.8933,2.8963,2.8976,2.9002,2.8829,2.8829,2.8829,2.8829,2.8881,2.8931,2.888,2.8946,2.8916,2.8971,2.8962,2.8934,2.898,2.892,2.8947,2.8882,2.8999,2.902,2.8835,2.8834,2.8833,2.8833,2.8832,2.9011,2.903,2.9031,2.9071,2.9105,2.9079,2.9124,2.9096,2.9069,2.9096,2.9107,2.9105,2.9098,2.9103,2.9104,2.9104,2.9104,2.9105,2.9105,2.9145,2.9144,2.9185,2.92,2.9215,2.923,2.9217,2.9231,2.9238,2.9213,2.9213,2.9172,2.9016,2.8976,2.9112,2.9111,2.911,2.9109,2.9109,2.9331,2.9283,2.9348,2.9363,2.9376,2.9409,2.9372,2.9401,2.9408,2.943,2.9384,2.9274,2.9252,2.9238,2.9205,2.9391,2.9391,2.9391,2.9391,2.9439,2.9425,2.9483,2.9507,2.9527,2.9499,2.9571,2.9561,2.9544,2.9546,2.9515,2.9469,2.9456,2.9441,2.9423,2.9391,2.9621,2.9621,2.9621,2.9551,2.9537,2.9604,2.9585,2.9592,2.9599,2.9665,2.9693,2.9664,2.963,2.9546,2.9536,2.9461,2.9439,2.9403,2.9375,2.9316,0,0]}]]